SCP
0 0 0 0 0 0 -0 0 -0 -0 -0 0 -0 0 -0 -0 -0 0 0 0 -0 -0 0 0 -0 -0 -0 -0 -0 -0 -0 -0 -0 -0 -0 -0 -0 -0 -0 0 0 0 0 -0 -0 0 -0 -0 -0
0 0 0 0 0 0 0 -0 -0 -0 -0 -0 0 0 0 -0 0 0 0 -0 -0 -0 -0 0 -0 -0 -0 -0 -0 -0 -0 -0 -0 -0 -0 -0 -0 -0 -0 -0 -0 -0 -0 -0 -0 -0 -0 -0 -0
0 0 0 0 -0 0 0 -0 -0 0 -0 0 0 -0 0 0 -0 0 -0 0 -0 0 0 -0 -0 -0 -0 -0 -0 -0 -0 -0 -0 -0 -0 -0 0 -0 0 -0 -0 -0 -0 -0 -0 -0 -0 -0 -0
0 0 0 0 0 -0 -0 0 0 0 0 0 -0 0 0 0 0 0 -0 0 0 0 0 -0 -0 -0 -1 -1 -0 -0 -0 -0 -0 -0 -0 -0 -0 0 0 0 0 -0 -0 -0 -0 -0 -0 -0 0
0 0 0 0 -0 -0 0 0 0 0 0 -0 0 0 0 0 0 -0 -0 0 0 0 0 0 -0 -0 -0 -1 -0 -0 -0 -0 -0 -0 -0 -0 -0 0 -0 -0 -0 -0 0 -0 -0 -0 0 0 0
0 0 0 0 0 0 0 0 0 0 0 0 0 0 0 0 0 -0 -0 0 0 0 0 0 -0 -0 -0 -0 -0 -0 -0 -0 -0 -0 -0 -0 -0 0 0 -0 -0 0 -0 -0 -0 -0 -0 -0 0
0 0 0 0 0 0 0 0 0 0 0 -0 0 0 0 0 0 -0 -0 -0 -0 0 0 0 0 0 0 -0 -0 -0 -0 -0 -0 -0 -0 0 -0 -0 -0 -0 0 -0 -0 -0 -0 -0 -0 -0 -0
0 0 0 -0 0 0 0 0 0 0 0 0 0 0 -0 -0 -0 0 -0 0 0 0 0 0 0 0 0 0 0 0 0 0 0 0 0 0 0 -0 -0 -0 -0 -0 -0 -0 -0 -0 0 0 -0
0 0 0 0 0 0 0 0 0 -0 0 0 0 -0 0 -0 -0 -0 0 0 0 1 0 0 1 0 0 0 0 0 0 0 0 0 0 -0 -0 -0 -0 -0 -0 -0 -0 -0 -0 -0 0 0 0
0 0 0 -0 0 0 0 0 0 0 0 0 0 0 0 -0 -0 -0 0 0 0 0 0 0 0 0 0 0 0 0 0 0 0 0 -0 -0 -0 -0 -0 -0 -0 -0 -0 -0 -0 -0 -0 0 0
0 0 0 0 0 0 0 0 0 0 0 0 0 0 0 0 0 0 0 0 0 0 0 0 1 1 0 0 0 0 0 0 0 0 0 0 -0 -0 -0 -0 -0 -0 -0 -0 -0 -0 0 0 0
0 0 0 0 0 0 0 0 0 0 0 0 0 0 0 0 0 0 0 0 0 0 0 0 0 0 0 0 0 0 0 0 0 0 0 0 0 -0 -0 -0 -0 -0 -0 -0 -0 -0 -0 0 0
0 0 0 0 0 0 0 0 0 0 0 -0 0 0 0 0 -0 0 0 0 0 0 0 0 0 0 0 1 1 0 0 0 0 0 0 0 0 -0 -0 -0 -0 0 -0 -0 -0 -0 -0 -0 0
0 0 0 -0 0 0 0 0 0 0 0 0 0 0 0 0 0 -0 -0 0 0 0 0 0 0 0 0 1 0 0 0 0 0 0 0 0 0 0 -0 -0 -0 0 0 0 -0 -0 -0 -0 0
0 -0 -0 -0 0 0 0 0 0 0 0 0 0 0 0 0 0 -0 -0 -0 0 0 0 0 0 0 0 0 0 0 0 0 0 0 0 0 0 0 0 0 0 0 0 0 0 -0 0 0 0
0 0 0 0 0 0 0 -0 0 0 0 0 0 0 0 0 0 0 -0 -0 0 0 0 0 0 0 0 0 0 0 0 0 0 0 0 0 0 0 0 0 0 0 0 0 0 0 0 0 0
0 0 0 0 0 0 0 0 0 0 0 0 0 0 0 0 0 0 0 0 0 0 0 0 0 0 0 0 0 0 0 0 0 0 0 0 0 0 0 0 0 0 0 0 0 0 0 0 0
0 0 0 0 0 0 0 0 0 0 0 0 0 0 0 0 0 0 0 0 0 0 0 0 0 0 0 0 0 0 0 0 0 0 0 0 0 0 0 0 0 0 0 0 0 0 0 0 0
0 0 0 0 0 0 0 0 0 0 0 0 0 0 1 0 0 0 0 0 0 0 0 0 0 0 0 1 1 1 0 0 0 0 0 0 0 0 0 0 0 0 0 0 0 0 0 0 0
0 0 0 0 0 0 0 0 0 0 0 0 0 0 0 0 0 0 0 0 0 0 0 0 0 0 0 0 1 1 1 1 1 1 0 0 0 0 0 0 0 0 0 0 0 0 0 0 0
0 0 0 0 0 0 0 0 0 0 0 0 0 0 0 0 0 3 3 2 1 1 1 1 0 0 0 1 1 1 1 1 1 1 1 0 0 0 0 0 0 0 0 0 0 0 0 0 0
-0 -0 0 0 0 0 0 0 0 0 0 0 0 0 1 2 5 4 2 2 1 1 1 1 1 1 1 1 2 2 2 1 1 1 1 1 0 0 0 0 0 0 0 0 0 0 0 0 0
0 0 0 0 0 0 0 0 0 0 0 0 0 0 0 2 2 0 0 0 0 0 0 0 1 1 1 1 2 2 2 2 1 1 1 1 0 0 0 0 0 0 0 0 0 0 0 0 0
0 0 0 0 0 0 0 0 0 0 0 0 0 0 0 0 0 0 0 0 0 0 0 0 0 0 0 1 1 1 1 1 1 1 1 1 1 1 0 0 0 0 0 0 0 0 0 0 0
0 0 0 0 0 0 0 0 0 0 0 0 0 0 0 0 0 0 0 0 0 0 0 0 0 0 0 0 1 1 1 0 0 0 1 1 1 1 1 0 0 0 0 0 0 0 0 0 0
0 0 0 0 0 0 0 0 0 0 0 0 0 0 0 0 0 0 0 0 0 0 0 0 0 0 0 0 0 0 0 0 0 0 0 0 0 0 1 1 1 0 0 0 0 0 1 1 0
0 0 0 0 0 0 0 0 0 0 0 0 0 0 0 0 0 0 0 0 0 0 0 0 0 0 0 0 0 0 0 0 0 0 0 0 0 0 0 0 0 1 1 0 1 1 1 1 1
0 0 0 0 0 0 0 0 0 0 0 0 0 0 0 0 0 0 0 0 0 0 0 0 0 0 0 0 0 0 0 0 0 0 0 0 0 0 0 0 0 0 1 1 0 1 1 1 1
0 0 0 0 0 0 0 0 0 0 0 0 0 0 0 0 0 0 0 0 0 0 0 0 0 0 0 0 0 0 0 0 0 0 0 0 0 0 0 0 0 0 0 1 1 1 1 1 0
0 0 0 0 0 0 0 0 0 -0 -0 -0 0 0 0 0 0 0 0 0 0 0 0 -0 0 -0 -0 -0 -0 -0 -0 -0 -0 0 0 0 0 0 0 0 0 0 0 0 1 1 0 1 1
Wind_Speed_500mb
12 16 13 6 8 9 8 11 5 5 11 20 8 8 7 9 9 8 24 59 63 65 65 58 53 47 43 39 39 39 37 34 32 30 28 26 23 22 21 20 19 16 15 15 17 18 18 18 19
11 9 1 4 8 4 10 9 14 9 7 28 26 21 5 4 12 15 46 64 60 65 65 61 55 49 45 41 37 36 34 32 30 28 26 24 23 21 20 18 17 16 14 13 13 14 16 17 17
10 4 3 8 7 11 9 8 15 13 32 2 9 15 15 22 23 51 50 66 67 66 64 61 57 51 46 43 38 34 32 29 28 26 25 23 22 20 19 17 15 13 11 12 15 14 15 17 19
2 4 6 7 14 11 10 10 19 13 25 27 13 5 11 20 37 39 56 55 71 66 65 61 57 52 48 44 39 34 29 27 25 23 22 20 19 18 16 15 13 10 8 11 17 18 16 17 19
2 4 6 3 8 11 13 26 42 13 13 23 38 12 11 21 28 50 50 57 68 66 67 64 58 53 47 43 39 35 31 27 24 21 19 18 17 16 15 14 12 9 9 11 16 20 19 18 17
5 5 7 6 9 12 15 31 27 22 29 37 19 25 13 23 44 49 52 59 68 63 67 66 60 53 47 41 37 34 31 28 25 21 18 16 16 15 15 14 13 13 13 13 14 17 20 19 17
11 8 7 3 9 12 9 53 13 6 17 16 35 12 13 41 42 44 54 60 68 67 67 65 62 56 48 41 37 33 31 27 24 22 19 16 14 14 14 14 15 16 17 15 16 15 16 18 18
4 8 4 3 5 12 10 37 23 7 7 31 16 7 12 49 44 43 56 61 68 70 70 69 64 60 56 49 42 37 34 31 26 22 18 14 12 13 15 13 15 18 22 22 22 21 21 19 14
6 8 2 7 4 15 37 18 29 7 19 14 16 16 7 54 52 51 62 67 70 71 73 70 65 62 56 51 46 42 37 34 30 25 20 16 12 12 13 15 17 20 26 21 21 19 20 21 17
9 8 14 14 7 12 34 17 34 11 4 14 24 27 14 50 52 64 72 73 76 75 71 69 66 63 58 55 50 46 42 39 33 28 24 20 16 15 18 20 24 22 21 22 17 15 13 11 10
7 10 10 12 30 26 23 43 31 4 0 11 19 29 36 54 50 58 63 67 67 63 69 67 62 59 58 56 53 49 46 40 35 30 26 22 19 18 19 20 21 18 15 16 18 12 4 1 3
2 14 11 21 31 16 10 23 13 15 13 2 20 19 57 59 55 55 59 61 59 55 59 65 66 62 54 51 51 48 46 41 38 33 29 27 24 21 23 22 20 18 14 13 12 12 13 0 15
7 10 18 20 28 25 25 25 19 18 15 6 10 14 61 59 50 55 54 56 59 59 37 49 48 64 59 54 50 49 48 44 37 35 32 30 29 26 25 26 22 18 15 15 13 12 4 2 7
6 16 20 16 22 16 7 12 12 17 19 15 12 18 34 72 55 52 64 68 71 64 65 62 50 54 60 55 52 52 49 43 39 37 34 33 32 31 31 29 23 19 15 19 23 20 15 13 14
10 12 13 7 5 11 12 15 8 25 26 28 25 26 32 56 49 57 55 59 66 75 68 59 58 63 50 28 43 53 48 45 36 34 37 36 36 35 36 31 26 21 17 18 27 30 25 16 17
9 11 11 12 15 10 7 16 23 50 37 42 37 31 34 43 56 58 68 62 70 69 72 64 56 52 49 43 36 43 46 39 29 26 33 29 26 24 31 33 27 22 23 24 22 28 30 19 13
15 5 9 21 13 5 4 19 28 66 48 55 56 28 27 42 51 63 61 62 72 70 71 72 60 46 46 47 41 38 42 41 32 30 33 31 29 27 25 28 26 30 29 28 25 25 24 24 19
7 8 8 12 12 13 14 19 22 59 40 57 43 21 35 46 55 60 63 64 76 75 78 62 50 58 49 38 49 43 39 41 39 44 39 38 35 36 36 31 27 32 38 37 29 28 27 25 28
6 7 10 24 31 7 19 13 26 38 19 23 22 39 48 50 53 61 70 71 78 84 86 63 62 62 54 52 55 51 49 39 42 48 37 47 49 39 39 39 35 33 35 44 39 33 33 36 34
10 9 19 17 22 8 18 21 14 11 12 15 36 55 61 58 55 51 61 72 75 72 72 64 67 57 53 47 54 55 45 45 43 43 39 39 34 35 43 40 43 38 39 41 52 45 42 38 40
7 8 11 14 21 7 9 15 12 11 38 33 6 34 60 61 62 58 60 65 68 69 61 57 60 57 51 47 47 62 47 45 40 52 53 46 43 44 42 48 41 46 45 44 47 58 54 47 43
5 10 14 11 7 12 5 17 10 15 10 28 32 16 15 28 57 55 47 45 48 48 50 56 54 57 49 46 43 52 59 49 48 41 42 40 45 48 51 54 52 50 53 52 43 45 53 50 43
6 17 13 9 10 6 3 2 10 14 14 27 31 32 28 31 37 42 49 43 36 28 29 43 45 44 40 36 37 33 38 38 41 36 35 34 37 42 47 47 52 53 56 56 48 47 50 52 50
16 14 9 10 4 7 12 7 9 9 12 14 26 41 38 47 44 47 50 46 42 35 26 28 37 27 29 24 24 28 26 27 31 34 41 41 41 37 43 46 51 49 49 54 55 50 47 51 57
24 16 10 10 8 10 13 6 4 12 11 12 13 38 37 53 49 46 45 48 44 38 37 37 36 41 32 26 21 15 10 9 21 30 27 33 35 39 40 39 44 44 41 39 42 50 55 58 62
10 7 7 10 5 11 11 8 7 14 11 19 22 47 57 52 39 51 49 51 57 57 48 36 36 40 34 32 28 22 14 14 4 16 24 30 38 34 42 44 43 42 37 37 40 44 40 52 60
9 4 2 2 5 5 6 4 7 11 7 17 34 53 49 58 53 46 50 49 48 49 47 42 41 40 35 32 30 30 27 23 23 19 16 14 16 20 28 32 38 48 51 48 45 46 49 41 40
6 4 3 6 3 8 9 8 9 19 14 9 28 41 34 66 57 50 56 48 39 41 39 26 30 31 28 23 20 22 23 22 20 20 21 24 25 23 25 29 35 36 40 49 52 58 54 51 48
9 6 11 6 4 4 5 8 13 13 17 15 29 39 45 55 39 35 48 49 28 34 20 24 23 20 20 21 23 26 30 31 33 32 28 24 27 33 34 34 32 31 31 33 37 38 47 55 53
5 4 5 8 7 5 5 11 7 8 11 27 14 34 34 30 11 21 23 21 19 6 21 24 14 23 33 35 34 33 34 36 35 31 27 27 28 29 38 38 38 38 33 23 27 36 40 43 45
Wind_Direction_500mb
336 321 318 319 40 62 290 260 236 246 180 185 211 173 265 127 166 214 153 170 170 170 169 166 166 166 160 154 149 147 143 137 132 126 121 117 114 113 114 115 117 119 124 133 141 146 144 133 124
328 312 335 108 90 57 269 271 250 347 254 137 136 146 205 158 179 154 154 167 175 175 172 169 169 170 165 161 156 152 148 141 135 129 124 120 115 112 115 118 122 122 122 130 139 148 152 151 140
312 272 212 102 128 190 225 246 280 123 139 24 156 199 163 156 182 164 161 171 175 179 177 173 172 174 171 168 163 157 153 147 141 135 130 124 117 112 115 121 123 126 127 144 147 147 153 158 161
199 144 70 104 227 255 223 263 261 153 222 227 216 211 172 150 158 168 167 175 177 180 180 177 176 179 177 173 168 163 157 153 148 142 134 124 113 104 106 112 114 114 119 130 149 152 149 154 160
112 94 55 352 277 269 263 267 268 233 228 187 173 194 170 178 174 172 175 181 180 183 182 180 181 183 184 179 174 170 165 160 156 149 138 129 116 103 98 99 95 85 91 113 138 152 155 152 157
95 85 63 250 283 267 278 304 287 210 176 163 192 140 163 207 180 184 187 185 185 184 185 183 183 187 189 186 181 176 172 167 162 156 150 139 126 110 98 91 82 79 87 103 125 150 161 162 164
124 90 204 161 267 300 252 348 12 87 129 203 150 119 176 185 161 175 176 178 186 187 186 188 186 187 191 194 188 184 182 176 171 167 163 155 136 114 98 91 88 88 94 106 112 124 147 168 176
129 92 86 332 256 274 305 354 345 52 195 158 125 173 203 188 175 161 172 181 188 190 188 190 190 190 192 194 194 191 189 186 185 183 176 165 149 127 109 100 95 102 109 114 103 96 101 102 131
158 60 135 237 246 276 313 24 357 112 167 166 201 259 209 184 188 188 183 183 191 195 192 193 195 194 196 198 198 197 197 194 193 191 189 183 169 149 126 122 111 114 122 126 109 93 84 80 77
115 123 214 202 242 286 309 339 333 19 100 283 264 255 209 189 188 192 187 189 193 196 197 197 198 199 198 200 203 202 203 202 200 198 198 194 183 157 142 126 130 123 128 133 125 103 80 72 75
158 188 213 239 276 297 295 304 315 182 283 332 264 210 191 193 195 197 187 195 194 196 202 200 204 207 204 204 206 208 210 209 208 209 208 207 204 184 168 144 139 141 146 128 134 135 134 58 316
298 250 254 289 307 317 269 305 274 232 204 274 333 232 191 197 197 200 196 195 198 196 205 204 207 210 213 214 214 216 218 218 217 218 218 219 217 207 188 173 162 163 174 178 159 126 114 255 274
201 281 312 317 308 296 288 258 248 250 260 249 292 233 197 203 197 205 206 205 198 191 220 203 212 213 212 216 220 222 224 225 227 229 231 232 231 219 203 197 190 185 209 219 224 218 236 307 256
244 281 292 302 306 305 240 269 154 258 244 247 255 270 208 202 200 195 204 205 203 202 206 201 193 198 208 216 222 225 227 231 232 236 239 242 245 240 226 213 209 202 218 238 240 248 247 241 257
291 336 342 327 14 308 326 334 251 281 276 259 226 237 230 196 202 210 211 211 213 209 207 207 205 203 196 203 228 231 231 232 231 243 240 242 242 243 241 233 226 216 229 251 243 236 239 252 265
16 49 8 291 327 321 55 277 281 318 277 260 251 238 226 231 222 217 214 215 215 209 206 209 213 201 199 209 214 224 226 219 225 239 228 229 229 233 239 244 244 235 242 252 255 240 234 238 245
6 284 320 324 308 340 28 291 286 305 288 265 250 243 220 214 216 216 222 224 223 211 209 215 209 211 212 212 214 220 218 224 226 228 236 231 234 234 240 245 255 250 250 249 251 254 247 240 266
289 333 301 273 279 339 306 267 290 309 287 248 238 217 204 203 213 208 215 221 214 205 210 216 235 211 215 221 220 217 221 225 232 241 241 228 237 232 237 242 249 251 250 249 251 241 252 260 277
247 238 257 278 282 260 274 277 288 315 306 241 197 184 183 181 188 194 200 208 211 203 208 220 219 215 220 229 227 226 229 233 241 236 241 254 231 235 239 242 248 249 254 250 252 248 253 256 268
231 262 280 284 275 152 287 288 285 302 311 278 184 176 176 167 171 182 195 204 207 213 222 224 217 218 228 235 233 231 236 237 242 245 253 259 251 250 256 253 245 254 252 250 244 244 246 249 258
268 217 265 253 305 254 267 303 329 346 36 35 66 166 170 170 167 176 183 192 200 202 204 212 221 230 228 235 234 230 226 222 237 259 258 262 262 259 254 263 254 249 254 256 249 244 248 253 257
299 296 265 266 347 291 121 286 307 350 353 12 2 14 120 151 160 163 165 174 190 201 202 207 216 223 224 227 222 229 237 241 249 260 257 263 257 258 261 260 261 254 248 253 258 251 250 252 252
270 315 285 261 246 302 66 60 253 353 333 354 336 78 98 111 121 126 137 138 144 149 182 200 208 209 211 213 216 214 225 243 251 260 263 266 271 268 269 264 255 253 249 247 256 253 255 257 256
307 341 8 25 92 269 337 195 270 345 331 331 346 68 85 116 119 111 111 118 120 123 152 187 198 183 187 185 201 213 223 249 260 263 267 267 268 271 281 281 282 269 260 262 253 250 256 263 261
6 34 348 327 352 247 334 16 292 352 353 347 343 57 81 98 98 95 92 95 99 103 101 102 101 96 94 98 107 108 200 236 269 284 288 292 294 277 275 280 280 283 277 274 268 255 254 258 260
284 134 165 276 273 274 341 320 342 89 69 59 63 73 78 87 100 103 95 91 90 91 90 93 95 90 89 81 78 82 91 63 13 288 281 281 287 290 275 278 278 280 284 280 274 281 273 258 258
308 49 205 144 313 348 237 139 201 160 118 86 75 72 69 78 73 83 93 101 97 94 92 93 90 87 86 80 75 68 67 66 60 45 18 352 324 299 285 283 287 273 275 273 274 268 268 267 275
56 116 15 14 313 288 304 286 295 181 161 136 76 73 69 89 79 84 87 88 92 92 93 94 76 70 64 51 40 24 17 16 17 12 4 355 339 331 318 306 289 277 269 265 266 267 265 262 263
350 21 54 98 161 231 293 272 6 290 171 191 119 99 83 78 79 85 85 75 76 70 84 77 75 54 41 23 6 351 345 344 338 333 332 335 337 335 323 319 319 304 283 269 265 266 266 257 260
94 134 127 122 249 256 290 261 160 101 191 253 184 155 166 133 9 95 13 26 64 91 334 354 6 8 358 349 334 325 320 318 317 323 332 318 316 333 337 324 317 321 314 281 272 274 267 265 268
Wind_Speed_850mb
12 16 13 6 8 9 8 11 5 5 11 20 8 8 7 9 9 8 24 59 63 65 65 58 53 47 43 39 39 39 37 34 32 30 28 26 23 22 21 20 19 16 15 15 17 18 18 18 19
11 9 1 4 8 4 10 9 14 9 7 28 26 21 5 4 12 15 46 64 60 65 65 61 55 49 45 41 37 36 34 32 30 28 26 24 23 21 20 18 17 16 14 13 13 14 16 17 17
10 4 3 8 7 11 9 8 15 13 32 2 9 15 15 22 23 51 50 66 67 66 64 61 57 51 46 43 38 34 32 29 28 26 25 23 22 20 19 17 15 13 11 12 15 14 15 17 19
2 4 6 7 14 11 10 10 19 13 25 27 13 5 11 20 37 39 56 55 71 66 65 61 57 52 48 44 39 34 29 27 25 23 22 20 19 18 16 15 13 10 8 11 17 18 16 17 19
2 4 6 3 8 11 13 26 42 13 13 23 38 12 11 21 28 50 50 57 68 66 67 64 58 53 47 43 39 35 31 27 24 21 19 18 17 16 15 14 12 9 9 11 16 20 19 18 17
5 5 7 6 9 12 15 31 27 22 29 37 19 25 13 23 44 49 52 59 68 63 67 66 60 53 47 41 37 34 31 28 25 21 18 16 16 15 15 14 13 13 13 13 14 17 20 19 17
11 8 7 3 9 12 9 53 13 6 17 16 35 12 13 41 42 44 54 60 68 67 67 65 62 56 48 41 37 33 31 27 24 22 19 16 14 14 14 14 15 16 17 15 16 15 16 18 18
4 8 4 3 5 12 10 37 23 7 7 31 16 7 12 49 44 43 56 61 68 70 70 69 64 60 56 49 42 37 34 31 26 22 18 14 12 13 15 13 15 18 22 22 22 21 21 19 14
6 8 2 7 4 15 37 18 29 7 19 14 16 16 7 54 52 51 62 67 70 71 73 70 65 62 56 51 46 42 37 34 30 25 20 16 12 12 13 15 17 20 26 21 21 19 20 21 17
9 8 14 14 7 12 34 17 34 11 4 14 24 27 14 50 52 64 72 73 76 75 71 69 66 63 58 55 50 46 42 39 33 28 24 20 16 15 18 20 24 22 21 22 17 15 13 11 10
7 10 10 12 30 26 23 43 31 4 0 11 19 29 36 54 50 58 63 67 67 63 69 67 62 59 58 56 53 49 46 40 35 30 26 22 19 18 19 20 21 18 15 16 18 12 4 1 3
2 14 11 21 31 16 10 23 13 15 13 2 20 19 57 59 55 55 59 61 59 55 59 65 66 62 54 51 51 48 46 41 38 33 29 27 24 21 23 22 20 18 14 13 12 12 13 0 15
7 10 18 20 28 25 25 25 19 18 15 6 10 14 61 59 50 55 54 56 59 59 37 49 48 64 59 54 50 49 48 44 37 35 32 30 29 26 25 26 22 18 15 15 13 12 4 2 7
6 16 20 16 22 16 7 12 12 17 19 15 12 18 34 72 55 52 64 68 71 64 65 62 50 54 60 55 52 52 49 43 39 37 34 33 32 31 31 29 23 19 15 19 23 20 15 13 14
10 12 13 7 5 11 12 15 8 25 26 28 25 26 32 56 49 57 55 59 66 75 68 59 58 63 50 28 43 53 48 45 36 34 37 36 36 35 36 31 26 21 17 18 27 30 25 16 17
9 11 11 12 15 10 7 16 23 50 37 42 37 31 34 43 56 58 68 62 70 69 72 64 56 52 49 43 36 43 46 39 29 26 33 29 26 24 31 33 27 22 23 24 22 28 30 19 13
15 5 9 21 13 5 4 19 28 66 48 55 56 28 27 42 51 63 61 62 72 70 71 72 60 46 46 47 41 38 42 41 32 30 33 31 29 27 25 28 26 30 29 28 25 25 24 24 19
7 8 8 12 12 13 14 19 22 59 40 57 43 21 35 46 55 60 63 64 76 75 78 62 50 58 49 38 49 43 39 41 39 44 39 38 35 36 36 31 27 32 38 37 29 28 27 25 28
6 7 10 24 31 7 19 13 26 38 19 23 22 39 48 50 53 61 70 71 78 84 86 63 62 62 54 52 55 51 49 39 42 48 37 47 49 39 39 39 35 33 35 44 39 33 33 36 34
10 9 19 17 22 8 18 21 14 11 12 15 36 55 61 58 55 51 61 72 75 72 72 64 67 57 53 47 54 55 45 45 43 43 39 39 34 35 43 40 43 38 39 41 52 45 42 38 40
7 8 11 14 21 7 9 15 12 11 38 33 6 34 60 61 62 58 60 65 68 69 61 57 60 57 51 47 47 62 47 45 40 52 53 46 43 44 42 48 41 46 45 44 47 58 54 47 43
5 10 14 11 7 12 5 17 10 15 10 28 32 16 15 28 57 55 47 45 48 48 50 56 54 57 49 46 43 52 59 49 48 41 42 40 45 48 51 54 52 50 53 52 43 45 53 50 43
6 17 13 9 10 6 3 2 10 14 14 27 31 32 28 31 37 42 49 43 36 28 29 43 45 44 40 36 37 33 38 38 41 36 35 34 37 42 47 47 52 53 56 56 48 47 50 52 50
16 14 9 10 4 7 12 7 9 9 12 14 26 41 38 47 44 47 50 46 42 35 26 28 37 27 29 24 24 28 26 27 31 34 41 41 41 37 43 46 51 49 49 54 55 50 47 51 57
24 16 10 10 8 10 13 6 4 12 11 12 13 38 37 53 49 46 45 48 44 38 37 37 36 41 32 26 21 15 10 9 21 30 27 33 35 39 40 39 44 44 41 39 42 50 55 58 62
10 7 7 10 5 11 11 8 7 14 11 19 22 47 57 52 39 51 49 51 57 57 48 36 36 40 34 32 28 22 14 14 4 16 24 30 38 34 42 44 43 42 37 37 40 44 40 52 60
9 4 2 2 5 5 6 4 7 11 7 17 34 53 49 58 53 46 50 49 48 49 47 42 41 40 35 32 30 30 27 23 23 19 16 14 16 20 28 32 38 48 51 48 45 46 49 41 40
6 4 3 6 3 8 9 8 9 19 14 9 28 41 34 66 57 50 56 48 39 41 39 26 30 31 28 23 20 22 23 22 20 20 21 24 25 23 25 29 35 36 40 49 52 58 54 51 48
9 6 11 6 4 4 5 8 13 13 17 15 29 39 45 55 39 35 48 49 28 34 20 24 23 20 20 21 23 26 30 31 33 32 28 24 27 33 34 34 32 31 31 33 37 38 47 55 53
5 4 5 8 7 5 5 11 7 8 11 27 14 34 34 30 11 21 23 21 19 6 21 24 14 23 33 35 34 33 34 36 35 31 27 27 28 29 38 38 38 38 33 23 27 36 40 43 45
Wind_Direction_850mb
336 321 318 319 40 62 290 260 236 246 180 185 211 173 265 127 166 214 153 170 170 170 169 166 166 166 160 154 149 147 143 137 132 126 121 117 114 113 114 115 117 119 124 133 141 146 144 133 124
328 312 335 108 90 57 269 271 250 347 254 137 136 146 205 158 179 154 154 167 175 175 172 169 169 170 165 161 156 152 148 141 135 129 124 120 115 112 115 118 122 122 122 130 139 148 152 151 140
312 272 212 102 128 190 225 246 280 123 139 24 156 199 163 156 182 164 161 171 175 179 177 173 172 174 171 168 163 157 153 147 141 135 130 124 117 112 115 121 123 126 127 144 147 147 153 158 161
199 144 70 104 227 255 223 263 261 153 222 227 216 211 172 150 158 168 167 175 177 180 180 177 176 179 177 173 168 163 157 153 148 142 134 124 113 104 106 112 114 114 119 130 149 152 149 154 160
112 94 55 352 277 269 263 267 268 233 228 187 173 194 170 178 174 172 175 181 180 183 182 180 181 183 184 179 174 170 165 160 156 149 138 129 116 103 98 99 95 85 91 113 138 152 155 152 157
95 85 63 250 283 267 278 304 287 210 176 163 192 140 163 207 180 184 187 185 185 184 185 183 183 187 189 186 181 176 172 167 162 156 150 139 126 110 98 91 82 79 87 103 125 150 161 162 164
124 90 204 161 267 300 252 348 12 87 129 203 150 119 176 185 161 175 176 178 186 187 186 188 186 187 191 194 188 184 182 176 171 167 163 155 136 114 98 91 88 88 94 106 112 124 147 168 176
129 92 86 332 256 274 305 354 345 52 195 158 125 173 203 188 175 161 172 181 188 190 188 190 190 190 192 194 194 191 189 186 185 183 176 165 149 127 109 100 95 102 109 114 103 96 101 102 131
158 60 135 237 246 276 313 24 357 112 167 166 201 259 209 184 188 188 183 183 191 195 192 193 195 194 196 198 198 197 197 194 193 191 189 183 169 149 126 122 111 114 122 126 109 93 84 80 77
115 123 214 202 242 286 309 339 333 19 100 283 264 255 209 189 188 192 187 189 193 196 197 197 198 199 198 200 203 202 203 202 200 198 198 194 183 157 142 126 130 123 128 133 125 103 80 72 75
158 188 213 239 276 297 295 304 315 182 283 332 264 210 191 193 195 197 187 195 194 196 202 200 204 207 204 204 206 208 210 209 208 209 208 207 204 184 168 144 139 141 146 128 134 135 134 58 316
298 250 254 289 307 317 269 305 274 232 204 274 333 232 191 197 197 200 196 195 198 196 205 204 207 210 213 214 214 216 218 218 217 218 218 219 217 207 188 173 162 163 174 178 159 126 114 255 274
201 281 312 317 308 296 288 258 248 250 260 249 292 233 197 203 197 205 206 205 198 191 220 203 212 213 212 216 220 222 224 225 227 229 231 232 231 219 203 197 190 185 209 219 224 218 236 307 256
244 281 292 302 306 305 240 269 154 258 244 247 255 270 208 202 200 195 204 205 203 202 206 201 193 198 208 216 222 225 227 231 232 236 239 242 245 240 226 213 209 202 218 238 240 248 247 241 257
291 336 342 327 14 308 326 334 251 281 276 259 226 237 230 196 202 210 211 211 213 209 207 207 205 203 196 203 228 231 231 232 231 243 240 242 242 243 241 233 226 216 229 251 243 236 239 252 265
16 49 8 291 327 321 55 277 281 318 277 260 251 238 226 231 222 217 214 215 215 209 206 209 213 201 199 209 214 224 226 219 225 239 228 229 229 233 239 244 244 235 242 252 255 240 234 238 245
6 284 320 324 308 340 28 291 286 305 288 265 250 243 220 214 216 216 222 224 223 211 209 215 209 211 212 212 214 220 218 224 226 228 236 231 234 234 240 245 255 250 250 249 251 254 247 240 266
289 333 301 273 279 339 306 267 290 309 287 248 238 217 204 203 213 208 215 221 214 205 210 216 235 211 215 221 220 217 221 225 232 241 241 228 237 232 237 242 249 251 250 249 251 241 252 260 277
247 238 257 278 282 260 274 277 288 315 306 241 197 184 183 181 188 194 200 208 211 203 208 220 219 215 220 229 227 226 229 233 241 236 241 254 231 235 239 242 248 249 254 250 252 248 253 256 268
231 262 280 284 275 152 287 288 285 302 311 278 184 176 176 167 171 182 195 204 207 213 222 224 217 218 228 235 233 231 236 237 242 245 253 259 251 250 256 253 245 254 252 250 244 244 246 249 258
268 217 265 253 305 254 267 303 329 346 36 35 66 166 170 170 167 176 183 192 200 202 204 212 221 230 228 235 234 230 226 222 237 259 258 262 262 259 254 263 254 249 254 256 249 244 248 253 257
299 296 265 266 347 291 121 286 307 350 353 12 2 14 120 151 160 163 165 174 190 201 202 207 216 223 224 227 222 229 237 241 249 260 257 263 257 258 261 260 261 254 248 253 258 251 250 252 252
270 315 285 261 246 302 66 60 253 353 333 354 336 78 98 111 121 126 137 138 144 149 182 200 208 209 211 213 216 214 225 243 251 260 263 266 271 268 269 264 255 253 249 247 256 253 255 257 256
307 341 8 25 92 269 337 195 270 345 331 331 346 68 85 116 119 111 111 118 120 123 152 187 198 183 187 185 201 213 223 249 260 263 267 267 268 271 281 281 282 269 260 262 253 250 256 263 261
6 34 348 327 352 247 334 16 292 352 353 347 343 57 81 98 98 95 92 95 99 103 101 102 101 96 94 98 107 108 200 236 269 284 288 292 294 277 275 280 280 283 277 274 268 255 254 258 260
284 134 165 276 273 274 341 320 342 89 69 59 63 73 78 87 100 103 95 91 90 91 90 93 95 90 89 81 78 82 91 63 13 288 281 281 287 290 275 278 278 280 284 280 274 281 273 258 258
308 49 205 144 313 348 237 139 201 160 118 86 75 72 69 78 73 83 93 101 97 94 92 93 90 87 86 80 75 68 67 66 60 45 18 352 324 299 285 283 287 273 275 273 274 268 268 267 275
56 116 15 14 313 288 304 286 295 181 161 136 76 73 69 89 79 84 87 88 92 92 93 94 76 70 64 51 40 24 17 16 17 12 4 355 339 331 318 306 289 277 269 265 266 267 265 262 263
350 21 54 98 161 231 293 272 6 290 171 191 119 99 83 78 79 85 85 75 76 70 84 77 75 54 41 23 6 351 345 344 338 333 332 335 337 335 323 319 319 304 283 269 265 266 266 257 260
94 134 127 122 249 256 290 261 160 101 191 253 184 155 166 133 9 95 13 26 64 91 334 354 6 8 358 349 334 325 320 318 317 323 332 318 316 333 337 324 317 321 314 281 272 274 267 265 268